Location: Ainval
(49.7008°N, 2.4341°E)
Time: 08:00:23
(UTC+00:00)

Daily predictions for brighter satellites

Satellite Brightness Start Highest point End
(mag) Time Altitude Azimuth Time Altitude Azimuth Time Altitude Azimuth
Cosmos 1980 Rocket 3.0 18:00:17 10° SSE 18:05:06 30° ESE 18:09:55 10° NE
ATLAS 2AS CENTAUR R/B 4.1 18:00:20 10° W 18:07:21 38° NNW 18:14:06 10° NE
ASTEX 1 3.5 18:03:05 10° NNE 18:08:00 56° E 18:12:53 10° S
CZ-4C R/B 4.4 18:04:16 10° N 18:08:32 55° WNW 18:12:38 10° SSW
NOSS 2-2 (C) 4.4 18:04:04 10° NW 18:08:53 77° SW 18:15:42 10° SE
SKYMED 3 4.4 18:04:46 10° NNE 18:08:54 69° ESE 18:13:00 10° S
Cosmos 2369 4.3 18:05:20 10° S 18:10:28 35° ESE 18:15:36 10° NE
Cosmos 1626 2.0 18:07:16 10° N 18:10:55 89° E 18:14:32 10° S
USA 229 DEB 4.0 18:05:53 10° NW 18:13:14 87° NE 18:21:06 10° SE
USA 229 4.0 18:05:59 10° NW 18:13:19 87° NE 18:21:12 10° SE
Cosmos 540 Rocket 3.4 18:10:31 10° NNW 18:15:39 73° ENE 18:20:45 10° SSE
Cosmos 1674 Rocket 4.1 18:14:22 10° N 18:18:28 36° ENE 18:22:34 10° SE
YAOGAN 1 2.6 18:15:19 10° SSE 18:19:35 63° ENE 18:23:52 10° N
SKYMED 2 3.8 18:15:18 10° NNE 18:19:40 79° WNW 18:24:00 10° SSW
Cosmos 841 Rocket 3.6 18:17:38 10° NNW 18:22:46 56° ENE 18:27:49 10° SE
SL-4 R/B 2.4 18:18:26 10° W 18:22:51 70° N 18:27:05 12° E
SL-16 R/B 3.9 18:21:18 10° ESE 18:22:54 11° E 18:24:32 10° ENE
OBJECT-B 1.8 18:25:24 15° E 18:26:27 18° ENE 18:28:21 10° NNE
Cosmos 1954 Rocket 4.2 18:24:43 10° SSW 18:29:53 79° WNW 18:35:06 10° NNE
Cosmos 1844 Rocket 4.3 18:26:45 10° N 18:30:50 20° NE 18:34:20 12° ENE
Cosmos 1763 Rocket 4.2 18:26:41 10° NNW 18:31:39 55° WSW 18:36:35 10° S
Cosmos 2279 Rocket 4.0 18:25:56 10° N 18:32:14 85° E 18:38:29 10° S
Meteor 2-10 4.4 18:27:04 10° SSE 18:32:30 49° E 18:37:49 10° NNE
H-2A R/B 4.2 18:32:30 12° ENE 18:33:31 14° ENE 18:35:29 10° NNE
ISS -3.8 18:30:53 10° WNW 18:34:16 88° NNE 18:36:41 18° ESE
Cosmos 2180 Rocket 4.5 18:29:03 10° N 18:35:17 71° ENE 18:41:34 10° SSE
Cosmos 2221 Rocket 3.6 18:30:54 10° N 18:35:25 71° ENE 18:39:57 10° SSE
Cosmos 2219 4.2 18:32:19 10° NW 18:37:53 51° WSW 18:43:24 10° S
SL-14 R/B 3.2 18:35:47 10° N 18:39:43 67° ENE 18:43:41 10° SSE
Aureole 1 4.1 18:38:30 10° SSW 18:41:30 80° ESE 18:44:54 10° NNE
Meteor 2-5 Rocket 4.4 18:37:19 10° N 18:42:18 32° ENE 18:46:13 15° ESE
IRIDIUM 104 4.5 18:37:48 10° SSE 18:42:48 50° E 18:47:51 10° NNE
Resurs 01 Rocket 3.3 18:42:03 14° ENE 18:43:08 15° ENE 18:45:43 10° NNE
HJ-1C 3.4 18:40:21 10° S 18:43:28 74° WSW 18:46:36 10° NNW
Cosmos 2360 4.4 18:41:26 10° SSW 18:47:10 78° WNW 18:52:57 10° NNE
NOSS 7 (H) 4.4 18:44:06 10° NW 18:47:15 73° NE 18:50:04 18° SE
Cosmos 1805 3.1 18:44:12 10° S 18:48:04 80° E 18:51:58 10° NNE
Cosmos 1378 Rocket 3.5 18:44:02 10° N 18:48:27 70° E 18:52:47 10° SSE
Cosmos 2263 Rocket 2.2 18:42:58 10° NNW 18:48:42 72° ENE 18:54:19 10° SE
Cosmos 1741 Rocket 4.0 18:45:50 10° S 18:51:00 58° ESE 18:56:11 10° NNE
USA 186 2.3 18:49:21 21° SE 18:51:03 38° ENE 18:54:08 10° N
USA 215 3.7 18:45:23 10° ENE 18:51:48 59° NNW 18:58:12 10° W
IRIDIUM 114 4.3 18:46:49 10° SSE 18:51:56 60° E 18:57:05 10° N
IGS 5A 3.8 18:53:35 18° SE 18:56:20 43° ENE 19:00:16 10° N
Cosmos 2082 4.2 18:51:52 10° NW 18:57:33 63° WSW 19:03:12 10° SSE
Cosmos 1733 Rocket 3.3 18:55:41 10° SSW 19:00:06 74° W 19:04:35 10° N
Cosmos 1766 3.3 18:56:44 10° S 19:00:32 54° E 19:04:24 10° NNE
ARGOS Delta rocket 4.4 18:55:15 10° N 19:00:38 69° WNW 19:05:44 10° SSW
IRIDIUM 103 4.2 18:55:53 10° S 19:01:03 71° E 19:06:17 10° N
Meteor 2-14 Rocket 4.3 18:55:17 10° S 19:01:19 75° E 19:07:23 10° NNE
Cosmos 1242 Rocket 3.2 18:59:21 10° SSW 19:02:51 56° WNW 19:06:23 10° N
Cosmos 1814 Rocket 4.0 18:58:01 10° NNW 19:03:17 64° ENE 19:07:02 19° SE
Okean-O 2.8 19:00:42 19° SE 19:03:37 49° ENE 19:07:54 10° N
Cosmos 1726 1.9 19:02:10 10° S 19:05:47 80° E 19:09:28 10° NNE
Resurs 1-3 4.0 19:05:38 26° SE 19:07:40 43° ENE 19:11:50 10° N
Cosmos 1697 Rocket 3.4 19:03:32 10° SW 19:09:02 55° NW 19:14:36 10° NNE
CSL-04 Debris 4.1 19:06:31 10° SSE 19:11:55 75° ENE 19:17:19 10° NNW
Cosmos 2084 3.2 19:11:28 10° SW 19:15:17 78° NW 19:18:22 15° NE
USA-17 4.4 19:12:34 10° NW 19:15:44 72° NE 19:16:45 43° ESE
IRS-1C Rocket 4.1 19:12:10 18° SSE 19:16:01 64° ENE 19:21:14 10° N
Meteor 2-21 Rocket 4.3 19:11:10 10° S 19:17:10 70° E 19:23:12 10° NNE
IRIDIUM 106 4.4 19:14:08 10° S 19:19:21 83° W 19:24:37 10° N
Cosmos 489 Rocket 4.4 19:16:35 10° S 19:22:50 64° ESE 19:29:06 10° NNE
SPOT 1/Viking Rocket 4.2 19:22:41 32° E 19:23:49 36° ENE 19:28:30 10° N
Cosmos 1470 3.5 19:28:31 34° NE 19:28:31 34° NE 19:31:06 10° NNE
CZ-4 R/B 3.0 19:25:17 10° SSW 19:29:08 36° W 19:33:00 10° NNW
Cosmos 2285 Rocket 4.0 19:26:25 10° NNW 19:32:48 87° WSW 19:37:14 21° SSE
CRYOSAT 2 4.2 19:29:50 23° SSE 19:32:52 73° E 19:37:47 10° N
MINOTAUR IV R/B 4.4 19:29:02 10° SSW 19:33:33 76° ESE 19:38:04 10° NNE
Meteor 2-16 Rocket 4.3 19:28:54 10° S 19:35:01 80° E 19:41:12 10° NNE
Gbstr 26 Del rocket 4.5 19:27:30 10° SW 19:35:07 63° SSE 19:40:02 25° ENE
Meteor 1-12 Rocket 4.3 19:29:16 10° S 19:35:15 89° ESE 19:41:20 10° NNE
deb Chang Zheng 4 3.4 19:35:01 54° E 19:35:23 57° ENE 19:39:28 10° N
Okean O Rocket 3.6 19:34:01 10° SSW 19:37:44 27° W 19:41:30 10° NW
BREEZE M DEB (TANK) 4.0 19:34:54 10° SW 19:38:08 22° S 19:38:08 22° S
SJ-6B 3.1 19:37:27 29° S 19:39:10 61° W 19:42:55 10° NNW
Cosmos 2322 Rocket 4.3 19:43:56 12° NE 19:43:56 12° NE 19:44:27 10° NE
Cosmos 2026 Rocket 3.9 19:33:46 10° S 19:39:42 60° E 19:45:40 10° NNE
BREEZE-M DEB (TANK) 4.3 19:37:36 10° WSW 19:39:43 22° SSW 19:39:57 22° SSW
JB-3 4.2 19:37:13 10° NNE 19:41:19 75° ESE 19:42:18 49° S
Cosmos 1553 Rocket 4.3 19:36:53 10° N 19:42:59 47° ENE 19:44:28 40° ESE
CSL-04 Rocket 3.8 19:38:43 16° S 19:43:03 71° WSW 19:48:28 10° NNW
Cosmos 1908 Rocket 3.7 19:39:04 10° SSW 19:43:24 74° WNW 19:47:45 10° N
Nadezhda 4 Rocket 4.3 19:40:04 10° SSW 19:46:21 68° WNW 19:52:41 10° N
MetOp-A 3.3 19:48:59 64° NNE 19:48:59 64° NNE 19:52:28 10° N
Cosmos 1980 Rocket 2.9 19:43:19 10° SW 19:48:50 53° NW 19:54:21 10° NNE
Cosmos 968 Rocket 3.4 19:45:30 10° S 19:50:43 67° ESE 19:55:56 10° NNE
Cosmos 1782 Rocket 3.3 19:50:50 74° E 19:50:51 74° E 19:55:12 10° NNE
Landsat 5 4.1 19:49:56 10° N 19:54:23 61° WNW 19:58:48 10° SSW
OBJECT-B 3.0 19:56:15 17° W 19:56:28 17° W 19:58:20 10° NW
Meteor 1-24 Rocket 3.6 19:53:06 10° NNW 19:58:25 79° W 20:00:31 38° S
Landsat 7 4.0 19:58:02 40° S 19:59:40 69° WSW 20:04:24 10° NNW
ATLAS 2AS CENTAUR R/B 4.4 19:54:11 10° NW 20:00:21 27° N 20:05:21 13° NE
Cosmos 1437 Rocket 3.1 20:00:09 53° WSW 20:00:39 59° WNW 20:04:21 10° N
Spot 2 4.1 20:01:39 64° NNE 20:01:39 64° NNE 20:05:22 10° NNW
Cosmos 2278 3.9 19:56:24 10° SW 20:02:05 71° WNW 20:07:47 10° NNE
Ariane Rocket 3.4 20:02:33 47° NE 20:02:33 47° NE 20:07:04 10° N
SL-4 R/B 2.4 19:57:56 10° WNW 20:02:27 66° SSW 20:02:29 66° SSW
SL-16 R/B 2.0 20:00:18 10° SSW 20:05:54 67° ESE 20:11:33 10° NNE
ERS-1 Rocket 4.5 20:07:59 23° NE 20:07:59 23° NE 20:10:51 10° N
Cosmos 1570 Rocket 4.4 20:01:50 10° NNW 20:07:02 60° WSW 20:08:41 40° SSW
H-2A R/B 2.7 20:08:58 62° NW 20:08:58 62° NW 20:12:21 10° NNW
Meteor 1-22 Rocket 4.2 20:03:51 10° SSW 20:09:13 78° WNW 20:14:49 10° N
ISS -1.5 20:07:53 10° W 20:09:34 21° WSW 20:09:34 21° WSW
MOS 1 4.1 20:10:29 62° SSE 20:11:31 85° ENE 20:17:12 10° NNW
Cosmos 1025 Rocket 3.3 20:10:54 10° NNW 20:14:56 65° WNW 20:14:56 65° WNW
Cosmos 1844 Rocket 2.5 20:10:01 10° NNW 20:15:44 75° ENE 20:16:00 73° E
Cosmos 2278 Rocket 3.9 20:13:13 10° N 20:17:11 19° NE 20:17:26 19° NE
Resurs 01 Rocket 1.9 20:19:37 66° NW 20:19:37 66° NW 20:23:30 10° NNW
Cosmos 1975 Rocket 3.6 20:16:22 10° NNW 20:20:43 56° W 20:20:46 56° W
Terra 3.7 20:23:49 20° NNE 20:23:49 20° NNE 20:25:51 10° N
Cosmos 1092 Rocket 4.4 20:16:05 10° SSW 20:22:21 64° WNW 20:28:37 10° N
Cosmos 836 Rocket 4.5 20:19:53 10° NNW 20:24:57 80° N 20:24:57 80° N
SPOT 5 4.2 20:32:25 31° NNE 20:32:25 31° NNE 20:35:13 10° N
Cosmos 1943 Rocket 4.5 20:29:40 10° N 20:31:31 11° NNE 20:32:30 11° NE
Cosmos 2263 Rocket 4.3 20:27:49 10° NW 20:32:04 22° W 20:36:03 11° SSW
Cosmos 1844 3.6 20:28:31 10° NNW 20:33:42 77° NNW 20:33:42 77° NNW
USA 215 3.9 20:31:46 33° NE 20:34:17 47° N 20:40:29 10° WNW
S3M 4.0 20:45:11 10° N 20:50:54 75° N 20:50:54 75° N
Cosmos 2360 Rocket 4.5 21:02:36 13° NNE 21:02:36 13° NNE 21:03:14 10° NNE
USA 281 3.3 21:06:58 71° N 21:06:58 71° N 21:12:53 10° NNW
Gbstr 26 Del rocket 4.5 21:14:35 10° W 21:22:31 81° NNW 21:22:31 81° NNW
Cosmos 2322 Rocket 3.6 21:25:40 32° N 21:25:40 32° N 21:28:52 10° NNE
SL-16 R/B 4.0 21:45:39 10° WSW 21:50:30 28° NW 21:55:23 10° NNE
ATLAS 2AS CENTAUR R/B 3.7 21:46:32 10° NW 21:52:45 39° NNE 21:52:45 39° NNE
Terra 4.3 22:02:43 18° NNW 22:02:43 18° NNW 22:04:03 10° NNW
Cosmos 2278 Rocket 3.9 21:56:38 10° NNW 21:59:16 28° NNW 21:59:16 28° NNW
NOSS 3-4 (C) 4.5 21:57:30 10° NW 22:02:09 48° NW 22:02:09 48° NW
USA 215 4.2 22:19:06 42° NW 22:19:06 42° NW 22:23:18 10° WNW
Cosmos 2369 Rocket 4.5 22:12:50 10° N 22:15:21 17° NNE 22:15:21 17° NNE
Cosmos 1943 Rocket 4.3 22:11:57 10° NNW 22:14:00 21° N 22:14:00 21° N
Cosmos 2360 Rocket 4.4 22:44:19 20° N 22:44:19 20° N 22:46:49 10° NNE
